Midland, MI

7:27 AM EST on January 16, 2018 (GMT -0500)
Barstow

Weather History for KIKW - February, 2014

Change the Weather History Date:

Sunday, February 23, 2014

  Actual Average (KMBS) Record (KMBS)
Temperature  
Mean Temperature 22 °F -  
Max Temperature 27 °F 31 °F 59 °F (2017)
Min Temperature 16 °F 18 °F -14 °F (2015)
Degree Days  
Heating Degree Days 44    
Moisture  
Dew Point 11 °F    
Average Humidity 61    
Maximum Humidity 77    
Minimum Humidity 46    
Precipitation  
Precipitation 0.00 in - - ()
Sea Level Pressure  
Sea Level Pressure 29.97 in    
Wind  
Wind Speed 11 mph (West)    
Max Wind Speed 21 mph    
Max Gust Speed 28 mph    
Visibility 10 miles    
Events      
Averages and records for this station are not official NWS values.
T = Trace of Precipitation, MM = Missing Value Source: NWS Daily Summary

Daily Weather History Graph

Daily Weather History Graph

Search for Another Location

Airport or City:

Trip Planner

Search our weather history database for the weather conditions in past years. The results will help you decide how hot, cold, wet, or windy it might be!

Date:

Astronomy

Feb. 23, 2014 Rise Set
Actual Time 7:23 AM EST 6:17 PM EST
Civil Twilight 6:54 AM EST 6:47 PM EST
Nautical Twilight 6:21 AM EST 7:20 PM EST
Astronomical Twilight 5:47 AM EST 7:53 PM EST
Moon 2:26 AM EST (2/23) 12:13 PM EST (2/23)
Length of Visible Light 11h 52m
Length of Day
10h 54m
Last Quarter, 39% of the Moon is Illuminated
Feb 23
Last Quarter
Mar 1
New
Mar 8
First Quarter
Mar 16
Full
Mar 23
Last Quarter

Hourly Weather History & Observations

Time (EST) Temp. Windchill Dew Point Humidity Pressure Visibility Wind Dir Wind Speed Gust Speed Precip Events Conditions
12:14 AM 24.8 °F 14.6 °F 14.9 °F 66% 29.92 in 10.0 mi WSW 10.4 mph 16.1 mph N/A   Clear
12:33 AM 24.8 °F 16.1 °F 14.9 °F 66% 29.92 in 10.0 mi WSW 8.1 mph - N/A   Clear
12:54 AM 24.1 °F 13.7 °F 14.9 °F 68% 29.92 in 10.0 mi WSW 10.4 mph - N/A   Clear
1:14 AM 23.9 °F 15.0 °F 14.5 °F 67% 29.92 in 10.0 mi West 8.1 mph - N/A   Clear
1:33 AM 23.7 °F 14.0 °F 14.0 °F 66% 29.92 in 10.0 mi WSW 9.2 mph - N/A   Clear
1:54 AM 23.5 °F 14.5 °F 13.6 °F 66% 29.92 in 10.0 mi West 8.1 mph - N/A   Clear
2:14 AM 23.0 °F 13.1 °F 13.1 °F 66% 29.93 in 10.0 mi West 9.2 mph - N/A   Clear
2:33 AM 23.2 °F 12.0 °F 12.9 °F 65% 29.93 in 10.0 mi West 11.5 mph 18.4 mph N/A   Clear
2:54 AM 22.8 °F 10.9 °F 12.7 °F 65% 29.93 in 10.0 mi West 12.7 mph 17.3 mph N/A   Clear
3:14 AM 22.1 °F 10.6 °F 12.4 °F 66% 29.93 in 10.0 mi West 11.5 mph 16.1 mph N/A   Clear
3:33 AM 21.7 °F 12.3 °F 12.2 °F 67% 29.93 in 10.0 mi West 8.1 mph 17.3 mph N/A   Clear
3:54 AM 21.2 °F 9.5 °F 12.0 °F 68% 29.94 in 10.0 mi West 11.5 mph - N/A   Clear
4:14 AM 20.8 °F 10.4 °F 12.0 °F 69% 29.94 in 10.0 mi West 9.2 mph - N/A   Clear
4:33 AM 20.3 °F 9.0 °F 11.8 °F 70% 29.94 in 10.0 mi West 10.4 mph - N/A   Clear
4:54 AM 19.9 °F 9.3 °F 11.8 °F 71% 29.95 in 10.0 mi West 9.2 mph - N/A   Clear
5:14 AM 19.4 °F 8.6 °F 11.8 °F 72% 29.95 in 10.0 mi West 9.2 mph - N/A   Clear
5:33 AM 18.7 °F 10.6 °F 11.3 °F 73% 29.95 in 10.0 mi West 5.8 mph - N/A   Clear
5:54 AM 18.5 °F 8.4 °F 11.3 °F 73% 29.96 in 10.0 mi West 8.1 mph - N/A   Clear
6:13 AM 18.3 °F 9.1 °F 11.3 °F 74% 29.96 in 10.0 mi West 6.9 mph - N/A   Clear
6:33 AM 18.0 °F 8.7 °F 10.9 °F 74% 29.97 in 10.0 mi West 6.9 mph - N/A   Clear
6:54 AM 17.6 °F 7.3 °F 10.8 °F 75% 29.98 in 10.0 mi West 8.1 mph - N/A   Clear
7:13 AM 17.4 °F 8.0 °F 10.4 °F 74% 29.99 in 10.0 mi WSW 6.9 mph - N/A   Clear
7:33 AM 16.9 °F 8.5 °F 10.4 °F 76% 29.99 in 10.0 mi WSW 5.8 mph - N/A   Clear
7:54 AM 16.5 °F 6.9 °F 10.4 °F 77% 29.99 in 10.0 mi WSW 6.9 mph - N/A   Clear
8:13 AM 16.7 °F 6.2 °F 10.4 °F 76% 30.00 in 10.0 mi WSW 8.1 mph - N/A   Clear
8:34 AM 17.1 °F 6.6 °F 10.4 °F 75% 30.00 in 10.0 mi WSW 8.1 mph - N/A   Clear
8:54 AM 18.3 °F 7.3 °F 10.8 °F 72% 30.01 in 10.0 mi WSW 9.2 mph - N/A   Clear
9:13 AM 19.2 °F 6.4 °F 10.4 °F 69% 30.00 in 10.0 mi WSW 12.7 mph 20.7 mph N/A   Clear
9:34 AM 19.9 °F 6.7 °F 10.4 °F 67% 30.00 in 10.0 mi West 13.8 mph 18.4 mph N/A   Clear
9:54 AM 20.3 °F 7.7 °F 10.2 °F 65% 30.00 in 10.0 mi WSW 12.7 mph 19.6 mph N/A   Clear
10:13 AM 21.2 °F 8.3 °F 10.2 °F 63% 30.00 in 10.0 mi West 13.8 mph 18.4 mph N/A   Clear
10:34 AM 21.7 °F 8.5 °F 10.0 °F 61% 30.00 in 10.0 mi West 15.0 mph 21.9 mph N/A   Clear
10:54 AM 22.1 °F 8.5 °F 10.0 °F 60% 30.00 in 10.0 mi West 16.1 mph 20.7 mph N/A   Clear
11:13 AM 22.5 °F 7.6 °F 9.7 °F 58% 30.00 in 10.0 mi West 19.6 mph 23.0 mph N/A   Clear
11:34 AM 23.4 °F 10.1 °F 9.9 °F 56% 30.00 in 10.0 mi West 16.1 mph 24.2 mph N/A   Clear
11:54 AM 23.7 °F 10.5 °F 9.5 °F 55% 30.00 in 10.0 mi West 16.1 mph 25.3 mph N/A   Clear
12:13 PM 23.9 °F 11.7 °F 9.7 °F 55% 30.00 in 10.0 mi West 13.8 mph 24.2 mph N/A   Clear
12:34 PM 24.8 °F 11.5 °F 9.9 °F 53% 29.99 in 10.0 mi West 17.3 mph 26.5 mph N/A   Clear
12:53 PM 25.3 °F 14.7 °F 10.0 °F 52% 29.99 in 10.0 mi West 11.5 mph 23.0 mph N/A   Clear
1:14 PM 25.7 °F 11.5 °F 9.9 °F 51% 29.98 in 10.0 mi WSW 20.7 mph 27.6 mph N/A   Clear
1:34 PM 26.4 °F 16.6 °F 10.6 °F 51% 29.97 in 10.0 mi West 10.4 mph 20.7 mph N/A   Clear
1:53 PM 26.4 °F 15.0 °F 10.8 °F 52% 29.97 in 10.0 mi WSW 13.8 mph 24.2 mph N/A   Clear
2:14 PM 27.3 °F 15.2 °F 10.4 °F 49% 29.97 in 10.0 mi West 16.1 mph 25.3 mph N/A   Clear
2:34 PM 27.5 °F 15.4 °F 10.6 °F 49% 29.97 in 10.0 mi West 16.1 mph 21.9 mph N/A   Clear
2:53 PM 27.0 °F 13.9 °F 9.3 °F 48% 29.96 in 10.0 mi West 18.4 mph 25.3 mph N/A   Clear
3:14 PM 27.0 °F 14.7 °F 9.5 °F 48% 29.96 in 10.0 mi West 16.1 mph 27.6 mph N/A   Clear
3:34 PM 26.6 °F 14.3 °F 9.5 °F 49% 29.96 in 10.0 mi West 16.1 mph 23.0 mph N/A   Clear
3:53 PM 26.4 °F 13.6 °F 8.8 °F 47% 29.96 in 10.0 mi WSW 17.3 mph 27.6 mph N/A   Clear
4:14 PM 26.4 °F 13.6 °F 8.4 °F 47% 29.96 in 10.0 mi West 17.3 mph 26.5 mph N/A   Clear
4:34 PM 26.6 °F 14.7 °F 8.6 °F 47% 29.96 in 10.0 mi West 15.0 mph 23.0 mph N/A   Clear
4:53 PM 26.6 °F 15.2 °F 8.6 °F 47% 29.96 in 10.0 mi West 13.8 mph 24.2 mph N/A   Clear
5:14 PM 25.9 °F 14.3 °F 7.7 °F 46% 29.96 in 10.0 mi West 13.8 mph 26.5 mph N/A   Clear
5:34 PM 25.2 °F 12.0 °F 8.2 °F 49% 29.96 in 10.0 mi WSW 17.3 mph 26.5 mph N/A   Clear
5:53 PM 24.4 °F 11.0 °F 8.6 °F 51% 29.97 in 10.0 mi West 17.3 mph 25.3 mph N/A   Clear
6:14 PM 23.4 °F 9.6 °F 8.4 °F 53% 29.97 in 10.0 mi West 17.3 mph 24.2 mph N/A   Clear
6:33 PM 22.8 °F 10.4 °F 8.4 °F 54% 29.98 in 10.0 mi West 13.8 mph 27.6 mph N/A   Clear
6:54 PM 22.5 °F 9.4 °F 8.8 °F 56% 29.99 in 10.0 mi West 15.0 mph 23.0 mph N/A   Mostly Cloudy
7:14 PM 22.5 °F 11.7 °F 9.3 °F 57% 29.99 in 10.0 mi West 10.4 mph 16.1 mph N/A   Overcast
7:33 PM 22.5 °F 12.4 °F 9.3 °F 57% 29.99 in 10.0 mi WSW 9.2 mph - N/A   Overcast
7:53 PM 22.6 °F 10.7 °F 9.9 °F 58% 29.99 in 10.0 mi WSW 12.7 mph 18.4 mph N/A   Overcast
8:14 PM 22.8 °F 9.9 °F 10.6 °F 59% 29.99 in 10.0 mi West 15.0 mph 21.9 mph N/A   Overcast
8:33 PM 22.6 °F 11.9 °F 11.1 °F 61% 29.99 in 10.0 mi WSW 10.4 mph 16.1 mph N/A   Overcast
8:54 PM 22.5 °F 11.1 °F 11.5 °F 63% 29.99 in 10.0 mi WSW 11.5 mph - N/A   Overcast
9:14 PM 22.5 °F 12.4 °F 12.0 °F 64% 29.99 in 10.0 mi West 9.2 mph - N/A   Overcast
9:33 PM 22.5 °F 14.1 °F 12.2 °F 65% 29.99 in 10.0 mi WSW 6.9 mph - N/A   Overcast
9:54 PM 22.6 °F 13.4 °F 12.0 °F 64% 30.00 in 10.0 mi WSW 8.1 mph - N/A   Overcast
10:14 PM 23.0 °F 13.1 °F 12.0 °F 63% 30.00 in 10.0 mi West 9.2 mph - N/A   Overcast
10:33 PM 23.0 °F 12.4 °F 11.1 °F 60% 29.99 in 10.0 mi WNW 10.4 mph 16.1 mph N/A   Overcast
10:54 PM 23.0 °F 9.6 °F 9.7 °F 57% 29.99 in 10.0 mi West 16.1 mph 20.7 mph N/A   Overcast
11:14 PM 23.0 °F 13.9 °F 9.7 °F 57% 29.99 in 10.0 mi West 8.1 mph 17.3 mph N/A   Overcast
11:33 PM 22.5 °F 11.1 °F 10.6 °F 60% 29.99 in 10.0 mi West 11.5 mph 19.6 mph N/A   Overcast
11:54 PM 22.1 °F 12.0 °F 9.7 °F 59% 29.99 in 10.0 mi West 9.2 mph 23.0 mph N/A   Overcast